Sparta, IL

7:57 AM CDT on May 26, 2018 (GMT -0500)
Sparta Community-Hunter

Weather History for KSAR - November, 2012

Change the Weather History Date:

Friday, November 30, 2012

  Actual Average (KBLV) Record (KBLV)
Temperature  
Mean Temperature 51 °F -  
Max Temperature 60 °F 50 °F 70 °F (1970)
Min Temperature 42 °F 31 °F 4 °F (1976)
Degree Days  
Heating Degree Days 14    
Growing Degree Days 1 (Base 50)    
Moisture  
Dew Point 37 °F    
Average Humidity 60    
Maximum Humidity 100    
Minimum Humidity 34    
Precipitation  
Precipitation 0.00 in - - ()
Sea Level Pressure  
Sea Level Pressure 30.13 in    
Wind  
Wind Speed 10 mph (South)    
Max Wind Speed 15 mph    
Max Gust Speed 21 mph    
Visibility 10 miles    
Events      
Averages and records for this station are not official NWS values.
T = Trace of Precipitation, MM = Missing Value Source: NWS Daily Summary

Daily Weather History Graph

Daily Weather History Graph

Search for Another Location

Airport or City:

Astronomy

Nov. 30, 2012 Rise Set
Actual Time 6:55 AM CST 4:39 PM CST
Civil Twilight 6:26 AM CST 5:08 PM CST
Nautical Twilight 5:54 AM CST 5:40 PM CST
Astronomical Twilight 5:22 AM CST 6:12 PM CST
Moon 6:33 PM CST (11/30) 8:27 AM CST (11/30)
Length of Visible Light 10h 41m
Length of Day
9h 43m
Waning Gibbous, 96% of the Moon is Illuminated
Nov 30
Waning Gibbous
Dec 6
Last Quarter
Dec 13
New
Dec 19
First Quarter
Dec 28
Full

Hourly Weather History & Observations

Time (CST) Temp. Windchill Dew Point Humidity Pressure Visibility Wind Dir Wind Speed Gust Speed Precip Events Conditions
12:15 AM 46.4 °F 41.5 °F 30.2 °F 53% 30.16 in 10.0 mi South 10.4 mph 17.3 mph N/A   Clear
12:35 AM 46.4 °F 42.9 °F 30.2 °F 53% 30.16 in 10.0 mi South 6.9 mph - N/A   Clear
12:55 AM 44.6 °F 40.2 °F 30.2 °F 57% 30.16 in 10.0 mi South 8.1 mph - N/A   Clear
1:15 AM 44.6 °F 39.2 °F 30.2 °F 57% 30.16 in 10.0 mi South 10.4 mph - N/A   Clear
1:35 AM 44.6 °F 38.8 °F 30.2 °F 57% 30.16 in 10.0 mi South 11.5 mph - N/A   Clear
1:55 AM 44.6 °F 39.2 °F 30.2 °F 57% 30.16 in 10.0 mi South 10.4 mph - N/A   Clear
2:15 AM 44.6 °F 39.7 °F 30.2 °F 57% 30.16 in 10.0 mi South 9.2 mph - N/A   Clear
2:35 AM 44.6 °F 39.2 °F 30.2 °F 57% 30.17 in 10.0 mi South 10.4 mph - N/A   Clear
2:55 AM 44.6 °F 40.7 °F 30.2 °F 57% 30.17 in 10.0 mi South 6.9 mph - N/A   Clear
3:15 AM 42.8 °F 38.0 °F 30.2 °F 61% 30.17 in 10.0 mi South 8.1 mph - N/A   Clear
3:35 AM 44.6 °F 39.7 °F 30.2 °F 57% 30.15 in 10.0 mi South 9.2 mph - N/A   Clear
3:55 AM 44.6 °F 39.2 °F 30.2 °F 57% 30.15 in 10.0 mi South 10.4 mph - N/A   Clear
4:15 AM 44.6 °F 39.7 °F 30.2 °F 57% 30.15 in 10.0 mi South 9.2 mph - N/A   Clear
4:35 AM 44.6 °F 39.7 °F 30.2 °F 57% 30.15 in 10.0 mi South 9.2 mph - N/A   Clear
4:55 AM 44.6 °F 38.8 °F 30.2 °F 57% 30.14 in 10.0 mi South 11.5 mph - N/A   Clear
5:15 AM 44.6 °F 39.7 °F 30.2 °F 57% 30.14 in 10.0 mi South 9.2 mph - N/A   Clear
5:35 AM 44.6 °F 39.2 °F 32.0 °F 61% 30.14 in 10.0 mi South 10.4 mph - N/A   Clear
5:55 AM 42.8 °F 37.0 °F 32.0 °F 66% 30.14 in 10.0 mi South 10.4 mph - N/A   Clear
6:15 AM 42.8 °F 36.6 °F 32.0 °F 66% 30.15 in 10.0 mi South 11.5 mph - N/A   Clear
6:35 AM 42.8 °F 36.6 °F 32.0 °F 66% 30.15 in 10.0 mi South 11.5 mph 18.4 mph N/A   Clear
6:55 AM 42.8 °F 36.6 °F 33.8 °F 70% 30.15 in 10.0 mi South 11.5 mph 16.1 mph N/A   Scattered Clouds
7:15 AM 42.8 °F 36.2 °F 33.8 °F 70% 30.15 in 10.0 mi South 12.7 mph - N/A   Scattered Clouds
7:35 AM 42.8 °F 36.6 °F 33.8 °F 70% 30.15 in 10.0 mi South 11.5 mph - N/A   Clear
7:55 AM 44.6 °F 38.1 °F 33.8 °F 66% 30.15 in 10.0 mi South 13.8 mph 19.6 mph N/A   Clear
8:15 AM 44.6 °F 38.1 °F 33.8 °F 66% 30.15 in 10.0 mi South 13.8 mph 20.7 mph N/A   Clear
8:35 AM 46.4 °F 40.7 °F 33.8 °F 62% 30.15 in 10.0 mi South 12.7 mph 18.4 mph N/A   Clear
8:55 AM 48.2 °F - 33.8 °F 58% 30.16 in 10.0 mi South 12.7 mph 18.4 mph N/A   Clear
9:15 AM 48.2 °F - 33.8 °F 58% 30.16 in 10.0 mi South 12.7 mph 17.3 mph N/A   Clear
9:35 AM 50.0 °F - 33.8 °F 54% 30.17 in 10.0 mi South 8.1 mph 18.4 mph N/A   Clear
9:55 AM 51.8 °F - 33.8 °F 50% 30.16 in 10.0 mi South 15.0 mph - N/A   Clear
10:15 AM 51.8 °F - 33.8 °F 50% 30.16 in 10.0 mi South 12.7 mph - N/A   Clear
10:35 AM 53.6 °F - 33.8 °F 47% 30.16 in 10.0 mi South 10.4 mph 16.1 mph N/A   Clear
10:55 AM 55.4 °F - 33.8 °F 44% 30.15 in 10.0 mi South 8.1 mph - N/A   Clear
11:15 AM 55.4 °F - 33.8 °F 44% 30.14 in 10.0 mi South 9.2 mph - N/A   Clear
11:35 AM 57.2 °F - 33.8 °F 41% 30.13 in 10.0 mi South 11.5 mph - N/A   Clear
11:55 AM 57.2 °F - 33.8 °F 41% 30.13 in 10.0 mi South 9.2 mph - N/A   Clear
12:15 PM 59.0 °F - 32.0 °F 36% 30.11 in 10.0 mi South 10.4 mph - N/A   Clear
12:35 PM 60.8 °F - 33.8 °F 36% 30.11 in 10.0 mi South 6.9 mph - N/A   Clear
12:55 PM 60.8 °F - 32.0 °F 34% 30.10 in 10.0 mi South 8.1 mph - N/A   Clear
1:15 PM 60.8 °F - 32.0 °F 34% 30.10 in 10.0 mi South 9.2 mph - N/A   Clear
1:35 PM 60.8 °F - 32.0 °F 34% 30.10 in 10.0 mi South 10.4 mph - N/A   Clear
1:55 PM 60.8 °F - 32.0 °F 34% 30.09 in 10.0 mi South 8.1 mph - N/A   Clear
2:15 PM 60.8 °F - 32.0 °F 34% 30.09 in 10.0 mi South 9.2 mph - N/A   Clear
2:35 PM 60.8 °F - 32.0 °F 34% 30.09 in 10.0 mi South 8.1 mph - N/A   Clear
2:55 PM 60.8 °F - 32.0 °F 34% 30.09 in 10.0 mi South 10.4 mph - N/A   Clear
3:15 PM 60.8 °F - 33.8 °F 36% 30.09 in 10.0 mi South 11.5 mph - N/A   Clear
3:35 PM 60.8 °F - 35.6 °F 39% 30.10 in 10.0 mi South 6.9 mph - N/A   Clear
3:55 PM 60.8 °F - 35.6 °F 39% 30.10 in 10.0 mi SSE 6.9 mph - N/A   Clear
4:15 PM 57.2 °F - 37.4 °F 48% 30.10 in 10.0 mi South 8.1 mph - N/A   Clear
4:35 PM 57.2 °F - 39.2 °F 51% 30.10 in 10.0 mi South 8.1 mph - N/A   Clear
4:55 PM 55.4 °F - 39.2 °F 54% 30.11 in 10.0 mi South 8.1 mph - N/A   Clear
5:15 PM 55.4 °F - 42.8 °F 63% 30.11 in 10.0 mi South 8.1 mph - N/A   Clear
5:35 PM 55.4 °F - 42.8 °F 63% 30.11 in 10.0 mi SSE 8.1 mph - N/A   Clear
5:55 PM 55.4 °F - 44.6 °F 67% 30.12 in 10.0 mi South 8.1 mph - N/A   Clear
6:15 PM 55.4 °F - 46.4 °F 72% 30.12 in 10.0 mi South 9.2 mph - N/A   Clear
6:35 PM 53.6 °F - 46.4 °F 77% 30.12 in 10.0 mi South 9.2 mph - N/A   Clear
6:55 PM 53.6 °F - 46.4 °F 77% 30.12 in 10.0 mi South 9.2 mph - N/A   Clear
7:15 PM 53.6 °F - 46.4 °F 77% 30.12 in 10.0 mi South 8.1 mph - N/A   Clear
7:35 PM 53.6 °F - 46.4 °F 77% 30.12 in 10.0 mi South 8.1 mph - N/A   Clear
7:55 PM 53.6 °F - 46.4 °F 77% 30.12 in 10.0 mi South 6.9 mph - N/A   Clear
8:15 PM 53.6 °F - 46.4 °F 77% 30.13 in 10.0 mi South 9.2 mph - N/A   Clear
8:35 PM 53.6 °F - 48.2 °F 82% 30.13 in 10.0 mi South 8.1 mph - N/A   Clear
9:15 PM 53.6 °F - 48.2 °F 82% 30.12 in 10.0 mi South 10.4 mph - N/A   Clear
9:35 PM 53.6 °F - 48.2 °F 82% 30.12 in 10.0 mi South 11.5 mph - N/A   Clear
9:55 PM 51.8 °F - 50.0 °F 94% 30.13 in 10.0 mi South 9.2 mph - N/A   Clear
10:15 PM 51.8 °F - 50.0 °F 94% 30.13 in 10.0 mi South 9.2 mph - N/A   Clear
10:35 PM 51.8 °F - 50.0 °F 94% 30.13 in 10.0 mi South 9.2 mph - N/A   Clear
10:55 PM 51.8 °F - 50.0 °F 94% 30.13 in 10.0 mi South 6.9 mph - N/A   Clear
11:15 PM 51.8 °F - 51.8 °F 100% 30.13 in 10.0 mi South 6.9 mph - N/A   Clear
11:35 PM 51.8 °F - 51.8 °F 100% 30.13 in 10.0 mi South 9.2 mph - N/A   Clear
11:55 PM 51.8 °F - 51.8 °F 100% 30.13 in 10.0 mi South 6.9 mph - N/A   Clear